Regional Weather Roundup
Issued by NWS

Home | Current Version | Previous Version | Text Only | Print | Product List | Glossary Off
Versions: 1 2 3 4 5 6 7 8 9 10 11 12 13 14 15 16 17 18 19 20 21 22 23 24 25 26 27 28 29 30 31 32 33 34 35 36 37 38 39 40 41 42 43 44 45 46 47 48 49 50

000
ASUS43 KLMK 060310
RWRKY
KENTUCKY REGIONAL WEATHER ROUNDUP
NATIONAL WEATHER SERVICE LOUISVILLE KY
1100 PM EDT SUN JUL 05 2015

NOTE "FAIR" INDICATES FEW OR NO CLOUDS BELOW 12,000 FEET
WITH NO SIGNIFICANT WEATHER AND/OR OBSTRUCTIONS TO VISIBILITY.

KYZ001>023-026-027-061>063-070>075-060400-
WESTERN AND SOUTH CENTRAL KENTUCKY

CITY           SKY/WX    TMP DP  RH WIND       PRES   REMARKS
PADUCAH        CLEAR     71  69  93 CALM      30.05R FOG
HENDERSON      CLEAR     73  70  88 SW3       30.06R
OWENSBORO      PTCLDY    77  70  79 SE8       30.08R
HOPKINSVILLE   CLEAR     74  68  83 NE1       30.07R
BOWLING GREEN  CLEAR     74  68  81 CALM      30.08R
GLASGOW        CLEAR     70  70 100 CALM      30.11R FOG
$$

KYZ024-025-028>034-038-045-046-053-060400-
NORTH CENTRAL KENTUCKY

CITY           SKY/WX    TMP DP  RH WIND       PRES   REMARKS
LOUISVILLE/SDF PTCLDY    74  65  73 S3        30.09R
LOUISVILLE/LOU CLEAR     71  65  81 CALM      30.10R
FORT KNOX      CLEAR     68  66  94 CALM      30.09R
$$

KYZ035>037-039>044-047>052-055>060-089>105-060400-
NORTHEAST KENTUCKY

CITY           SKY/WX    TMP DP  RH WIND       PRES   REMARKS
LEXINGTON      PTCLDY    67  64  90 CALM      30.12R
COVINGTON      MOCLDY    68  61  78 CALM      30.09R
FRANKFORT      PTCLDY    67  64  90 CALM      30.10R
$$

KYZ054-064>069-076>088-106>120-060400-
SOUTHEAST KENTUCKY

CITY           SKY/WX    TMP DP  RH WIND       PRES   REMARKS
JACKSON        LGT RAIN  69  68  96 CALM      30.10R FOG
LONDON         CLEAR     69  63  81 CALM      30.13R
SOMERSET       PTCLDY    68  68 100 CALM      30.13R FOG
MIDDLESBORO    MOCLDY    69  67  95 W3        30.12R
MONTICELLO     PTCLDY    68  68 100 CALM      30.14R FOG
$$



USA.gov is the U.S. government's official web portal to all federal, state and local government web resources and services.